Back to catalog

SL-16 DEB

AliveLEO
NORAD 22419·DEBRIS·🇷🇺 Russia

Launched Dec 25, 1992 from Baikonur Cosmodrome

Loading…

Next Passes (next 24 hours)

TLE

FreshSource: Space-Track

Epoch: Sep 14, 2026, 15:03 UTC

1 22419U 92093DL  26257.62720480  .00000108  00000-0  10526-3 0  9998
2 22419  71.1818 345.7458 0103675  58.5489 302.5709 13.96134955713578

Track SL-16 DEB in real time with AllMySat

Download on the App Store